Weather History for Trinidad, CO

Change the Weather History Date:

Tuesday, January 29, 2013

  Actual Average Record
Temperature  
Mean Temperature 25 °F 33 °F  
Max Temperature 38 °F 48 °F 70 °F (1971)
Min Temperature 12 °F 18 °F -17 °F (1949)
Degree Days  
Heating Degree Days 40 32  
Month to date heating degree days 932 948  
Since 1 July heating degree days 2981 3216  
Cooling Degree Days 0 0  
Month to date cooling degree days 0 0  
Year to date cooling degree days 0 0  
Moisture  
Dew Point 19 °F    
Average Humidity 59    
Maximum Humidity 92    
Minimum Humidity 25    
Precipitation  
Precipitation 0.00 in 0.01 in 0.16 in (2005)
Month to date precipitation 0.03 0.37  
Year to date precipitation 0.03 0.37  
Sea Level Pressure  
Sea Level Pressure 29.66 in    
Wind  
Wind Speed 10 mph (NNE)    
Max Wind Speed 26 mph    
Max Gust Speed 33 mph    
Visibility 5 miles    
Events Fog , Snow    
T = Trace of Precipitation, MM = Missing Value Source: NWS Daily Summary

Daily Weather History Graph

Daily Weather History Graph

Search for Another Location

Airport:

Trip Planner

Search our weather history database for the weather conditions in past years. The results will help you decide how hot, cold, wet, or windy it might be!

Date:

Astronomy

Jan. 29, 2013 Rise Set
Actual Time 7:02 AM MST 5:19 PM MST
Civil Twilight 6:34 AM MST 5:46 PM MST
Nautical Twilight 6:03 AM MST 6:17 PM MST
Astronomical Twilight 5:32 AM MST 6:48 PM MST
Moon 8:12 PM MST (1/29) 8:05 AM MST (1/29)
Length of Visible Light 11h 11m
Length of Day
10h 16m
Waning Gibbous, 93% of the Moon is Illuminated
Jan 29
Waning Gibbous
Feb 3
Last Quarter
Feb 10
New
Feb 17
First Quarter
Feb 25
Full

Hourly Weather History & Observations

Time (MST) Temp. Windchill Dew Point Humidity Pressure Visibility Wind Dir Wind Speed Gust Speed Precip Events Conditions
12:54 AM 35.1 °F - 18.0 °F 50% 29.55 in 10.0 mi Calm Calm - N/A   Overcast
1:54 AM 35.1 °F 30.1 °F 17.1 °F 48% 29.53 in 10.0 mi SSW 5.8 mph - N/A   Mostly Cloudy
2:54 AM 37.9 °F 30.0 °F 7.0 °F 28% 29.53 in 10.0 mi South 12.7 mph 18.4 mph N/A   Mostly Cloudy
3:54 AM 37.0 °F 27.4 °F 5.0 °F 26% 29.52 in 10.0 mi SSW 17.3 mph 25.3 mph N/A   Mostly Cloudy
4:54 AM 34.0 °F 25.5 °F 6.1 °F 31% 29.51 in 10.0 mi SW 11.5 mph - N/A   Scattered Clouds
5:35 AM 24.8 °F 13.4 °F 23.0 °F 93% 29.60 in 7.0 mi NNE 12.7 mph - N/A   Scattered Clouds
5:44 AM 26.6 °F 16.2 °F 24.8 °F 93% 29.59 in 9.0 mi NNE 11.5 mph - N/A   Mostly Cloudy
5:54 AM 26.1 °F 15.0 °F 23.0 °F 88% 29.56 in 10.0 mi NNE 12.7 mph - N/A   Scattered Clouds
6:41 AM 26.6 °F 17.5 °F 24.8 °F 93% 29.60 in 10.0 mi NNE 9.2 mph - N/A   Mostly Cloudy
6:54 AM 27.0 °F 18.0 °F 24.1 °F 89% 29.59 in 10.0 mi NE 9.2 mph - N/A   Overcast
7:54 AM 28.0 °F 19.3 °F 24.1 °F 85% 29.62 in 10.0 mi NNE 9.2 mph - N/A   Overcast
8:25 AM 26.6 °F 19.1 °F 24.8 °F 93% 29.62 in 3.0 mi NE 6.9 mph - N/A   Overcast
8:40 AM 28.4 °F 21.2 °F 24.8 °F 86% 29.63 in 1.8 mi ENE 6.9 mph - 0.00 in Snow Light Snow
8:54 AM 27.0 °F 18.0 °F 25.0 °F 92% 29.63 in 2.0 mi ENE 9.2 mph - 0.00 in Snow Light Snow
9:34 AM 26.6 °F 15.2 °F 24.8 °F 93% 29.62 in 1.2 mi ENE 13.8 mph - 0.00 in Snow Light Snow
9:44 AM 26.6 °F 15.2 °F 24.8 °F 93% 29.62 in 0.5 mi NE 13.8 mph - 0.00 in Fog , Snow Snow
9:54 AM 27.0 °F 15.2 °F 24.1 °F 89% 29.62 in 0.8 mi ENE 15.0 mph - 0.00 in Snow Light Snow
9:59 AM 26.6 °F 15.7 °F 24.8 °F 93% 29.62 in 1.0 mi NE 12.7 mph - 0.00 in Snow Light Snow
10:07 AM 26.6 °F 15.7 °F 24.8 °F 93% 29.61 in 1.2 mi NE 12.7 mph - 0.00 in Snow Light Snow
10:18 AM 26.6 °F 13.8 °F 24.8 °F 93% 29.62 in 1.5 mi NE 17.3 mph - 0.00 in Snow Light Snow
10:52 AM 26.6 °F 13.8 °F 23.0 °F 86% 29.61 in 0.5 mi NE 17.3 mph 26.5 mph 0.00 in Fog , Snow Snow
10:54 AM 26.1 °F 13.1 °F 23.0 °F 88% 29.62 in 0.5 mi NE 17.3 mph 26.5 mph 0.00 in Fog , Snow Snow
11:04 AM 24.8 °F 10.3 °F 21.2 °F 86% 29.62 in 0.2 mi NNE 20.7 mph 28.8 mph 0.00 in Fog , Snow Heavy Snow
11:13 AM 24.8 °F 10.0 °F 21.2 °F 86% 29.61 in 0.2 mi NNE 21.9 mph 29.9 mph 0.00 in Fog , Snow Heavy Snow
11:30 AM 24.8 °F 10.3 °F 19.4 °F 80% 29.62 in 0.5 mi North 20.7 mph 26.5 mph 0.00 in Fog , Snow Snow
11:41 AM 23.0 °F 7.2 °F 19.4 °F 86% 29.62 in 1.0 mi NNE 23.0 mph 31.1 mph 0.00 in Snow Light Snow
11:54 AM 23.0 °F 8.3 °F 19.0 °F 85% 29.65 in 1.5 mi NNE 19.6 mph 31.1 mph 0.00 in Snow Light Snow
12:04 PM 23.0 °F 7.2 °F 19.4 °F 86% 29.62 in 1.8 mi NNE 23.0 mph 28.8 mph 0.00 in Snow Light Snow
12:12 PM 23.0 °F 9.2 °F 17.6 °F 80% 29.63 in 2.5 mi NNE 17.3 mph 33.4 mph 0.00 in Snow Light Snow
12:19 PM 23.0 °F 9.6 °F 17.6 °F 80% 29.63 in 2.0 mi North 16.1 mph - 0.00 in Snow Light Snow
12:47 PM 23.0 °F 10.6 °F 17.6 °F 80% 29.63 in 6.0 mi NNE 13.8 mph - 0.00 in Snow Light Snow
12:54 PM 23.0 °F 11.1 °F 18.0 °F 81% 29.67 in 4.0 mi North 12.7 mph - 0.00 in Snow Light Snow
12:59 PM 23.0 °F 10.6 °F 17.6 °F 80% 29.64 in 2.5 mi North 13.8 mph - 0.00 in Snow Light Snow
1:05 PM 23.0 °F 11.1 °F 17.6 °F 80% 29.64 in 3.0 mi NNE 12.7 mph - 0.00 in Snow Light Snow
1:12 PM 23.0 °F 11.1 °F 17.6 °F 80% 29.64 in 1.8 mi NNE 12.7 mph - 0.00 in Snow Light Snow
1:54 PM 23.0 °F 12.4 °F 19.0 °F 85% 29.68 in 0.5 mi NE 10.4 mph - 0.00 in Fog , Snow Snow
2:13 PM 23.0 °F 13.1 °F 19.4 °F 86% 29.65 in 0.8 mi NE 9.2 mph - 0.00 in Snow Light Snow
2:54 PM 23.0 °F 15.8 °F 19.0 °F 85% 29.68 in 0.5 mi NNE 5.8 mph - 0.00 in Fog , Snow Light Snow
3:07 PM 23.0 °F 11.1 °F 17.6 °F 80% 29.67 in 1.0 mi North 12.7 mph - 0.00 in Snow Light Snow
3:36 PM 23.0 °F 10.6 °F 15.8 °F 74% 29.68 in 3.0 mi NNE 13.8 mph 19.6 mph 0.00 in Snow Light Snow
3:47 PM 23.0 °F 13.1 °F 17.6 °F 80% 29.69 in 5.0 mi North 9.2 mph - 0.00 in   Haze
3:54 PM 21.9 °F 9.8 °F 17.1 °F 82% 29.72 in 4.0 mi North 12.7 mph - 0.00 in Snow Light Snow
4:54 PM 21.9 °F 14.5 °F 17.1 °F 82% 29.75 in 10.0 mi WNW 5.8 mph - 0.00 in   Mostly Cloudy
5:54 PM 19.0 °F 9.0 °F 15.1 °F 85% 29.83 in 10.0 mi West 8.1 mph - N/A   Clear
6:54 PM 16.0 °F 6.3 °F 12.0 °F 84% 29.86 in 10.0 mi WNW 6.9 mph - N/A   Mostly Cloudy
7:54 PM 14.0 °F 8.2 °F 10.0 °F 84% 29.90 in 10.0 mi NW 3.5 mph - N/A   Overcast
8:54 PM 12.9 °F 1.6 °F 8.1 °F 81% 29.94 in 10.0 mi WNW 8.1 mph - N/A   Overcast
9:54 PM 15.1 °F 5.2 °F 9.0 °F 77% 29.96 in 10.0 mi NNW 6.9 mph - N/A   Mostly Cloudy
10:54 PM 18.0 °F 8.7 °F 12.9 °F 81% 29.98 in 10.0 mi NW 6.9 mph - N/A   Overcast
11:54 PM 19.9 °F 11.1 °F 15.1 °F 81% 30.00 in 10.0 mi NW 6.9 mph - N/A   Overcast